Location: Bavegemberg
(50.9500°N, 3.8833°E)
Time: 05:58:28
(UTC+00:00)

FENGYUN 1C DEB - Pass Details

Date: 03 October 2024
Orbit: 756 x 948 km, 98.7° (Epoch: 04 November)

Event Time Altitude Azimuth Distance (km) Brightness Sun altitude
Exits shadow 23:47:59 15° 344° (NNW) 2,138 ? -43.4°
Drops below altitude 10° 23:48:51 10° 345° (NNW) 2,476 ? -43.4°
Sets 23:51:17 0° 345° (NNW) 3,447 ? -43.4°
